Hourly Data Report for October 02, 2013

All times are specified in Local Standard Time (LST). Add 1 hour to adjust for Daylight Saving Time where and when it is observed.

CLYDE RIVER A
NUNAVUT

70°29'09.000" N
68°31'01.000" W
26.50 m
2400804
71090
YCY

Download Data

Hourly Data (October 2013)
Hourly Data Report for October 2, 2013
Temp Definition
°C
Dew Point Temp Definition
°C
Rel Hum Definition
%
Wind Dir Definition
10's deg

Wind Spd Definition
km/h
Visibility Definition
km
Stn Press Definition
kPa
Hmdx Definition


Wind Chill Definition


Weather Definition


TIME
00:00 Legend Double Dagger -4.2 -6.1 87 27 24 16.1 100.46   -11 LegendNANA
01:00 Legend Double Dagger -4.0 -6.0 86 28 30 16.1 100.46   -12 LegendNANA
02:00 Legend Double Dagger -3.9 -5.9 86 28 28 16.1 100.48   -11 LegendNANA
03:00 Legend Double Dagger -3.9 -5.9 86 29 26 16.1 100.50   -11 LegendNANA
04:00 Legend Double Dagger -3.9 -6.0 85 28 22 16.1 100.51   -10 LegendNANA
05:00 Legend Double Dagger -3.9 -6.0 86 29 28 16.1 100.54   -11 LegendNANA
06:00 Legend Double Dagger -3.8 -5.8 86 29 30 16.1 100.54   -11 LegendNANA
07:00 Legend Double Dagger -3.6 -5.8 85 29 28 16.1 100.56   -11 LegendNANA
08:00 Legend Double Dagger -3.3 -5.8 83 29 32 16.1 100.59   -11 LegendNANA
09:00 Legend Double Dagger -2.6 -5.4 81 27 21 16.1 100.59   -9 LegendNANA
10:00 Legend Double Dagger -2.5 -5.4 81 28 21 16.1 100.59   -9 LegendNANA
11:00 Legend Double Dagger -2.4 -5.4 80 28 21 16.1 100.59   -8 LegendNANA
12:00 Legend Double Dagger -2.0 -3.9 87 30 22 16.1 100.60   -8 LegendNANA
13:00 Legend Double Dagger -2.4 -4.0 89 27 18 16.1 100.63   -8 LegendNANA
14:00 Legend Double Dagger -2.2 -3.9 88 29 21 16.1 100.63   -8 LegendNANA
15:00 Legend Double Dagger -1.9 -3.5 89 30 24 9.7 100.66   -8 LegendNANA
16:00 Legend Double Dagger -2.1 -3.4 91 31 15 16.1 100.69   -7 LegendNANA
17:00 Legend Double Dagger -1.9 -3.5 89 33 21 16.1 100.72   -8 LegendNANA
18:00 Legend Double Dagger -2.1 -4.0 87 33 21 16.1 100.74   -8 LegendNANA
19:00 Legend Double Dagger -2.4 -4.1 88 33 21 16.1 100.75   -8 LegendNANA
20:00 Legend Double Dagger -2.7 -4.0 91 30 21 9.7 100.77   -9 LegendNANA
21:00 Legend Double Dagger -2.5 -3.3 94 34 21 12.9 100.78   -9 LegendNANA
22:00 Legend Double Dagger -2.7 -3.7 93 31 21 6.4 100.79   -9 LegendNANA
23:00 Legend Double Dagger -3.2 -4.5 91 32 22 12.9 100.78   -10 LegendNANA

Notes on Data Quality.

Legend

  • E = Estimated
  • M = Missing
  • NA = Not Available
  • ‡ = Partner data that is not subject to review by the National Climate Archives
Date modified: